User: anonymous   Login
Location: Unspecified
(0.0000°N, 0.0000°E)
Time: 01:15:50
(UTC+01:00)
Language:

GPS 2-12 Rocket1 - Orbit

View from above orbital plane
View from above orbital plane
View from above satellite
View from above satellite

Ground track
Ground track

The orbit data is extracted from the following two-line orbital elements,

1 21891U 92009B   15027.38862794  .00001464  00000-0  12950-3 0  3981
2 21891 019.9986 043.3607 0048441 126.6242 233.8643 14.81631535236728
Epoch (UTC): 27 January 2015 09:19:37
Eccentricity: 0.0048441
inclination: 19.9986°
perigee height: 590 km
apogee height: 658 km
right ascension of ascending node: 43.3607°
argument of perigee: 126.6242°
revolutions per day: 14.81631535
mean anomaly at epoch: 233.8643°
orbit number at epoch: 23672

The dashed part of the orbit path shows where the satellite is in the earth's shadow,  

DLR